| time (UTC) | temp C | wind direction | speed KPH | gust KPH | rain 1hr cm | rain 24hr cm | rain mn cm | humidity % | barometer mb |
| 20260507235100 | 12 | 225 | 1.6 | 9.7 | 0.00 | 0.05 | 0.00 | 83 | 1013.3 |
| 20260507235054 | 12 | 239 | 4.8 | 9.7 | 0.00 | 0.05 | 0.00 | 83 | 1013.2 |
| 20260507234101 | 11 | 179 | 1.6 | 9.7 | 0.00 | 0.05 | 0.00 | 84 | 1013.4 |
| 20260507233601 | 11 | 226 | 3.2 | 9.7 | 0.00 | 0.05 | 0.00 | 84 | 1013.2 |
| 20260507233319 | 11 | 230 | 8.0 | 9.7 | 0.00 | 0.05 | 0.00 | 84 | 1013.4 |
| 20260507232600 | 11 | 273 | 4.8 | 9.7 | 0.00 | 0.05 | 0.00 | 85 | 1013.4 |
| 20260507232057 | 11 | 299 | 3.2 | 9.7 | 0.00 | 0.08 | 0.00 | 84 | 1013.3 |
| 20260507231559 | 11 | 70 | 3.2 | 8.0 | 0.00 | 0.08 | 0.00 | 84 | 1013.3 |
| 20260507231100 | 11 | 245 | 3.2 | 6.4 | 0.00 | 0.08 | 0.00 | 84 | 1013.6 |
| 20260507230559 | 12 | 234 | 0.0 | 6.4 | 0.00 | 0.08 | 0.00 | 84 | 1013.4 |
| 20260507230531 | 12 | 234 | 1.6 | 11.3 | 0.00 | 0.08 | 0.00 | 82 | 1013.5 |
| 20260507230148 | 12 | 287 | 1.6 | 8.0 | 0.00 | 0.08 | 0.00 | 83 | 1013.6 |
| 20260507225057 | 12 | 230 | 3.2 | 11.3 | 0.00 | 0.10 | 0.00 | 82 | 1013.4 |
| 20260507224600 | 12 | 337 | 4.8 | 6.4 | 0.00 | 0.13 | 0.00 | 83 | 1013.5 |
| 20260507224058 | 12 | 329 | 3.2 | 6.4 | 0.00 | 0.15 | 0.00 | 83 | 1013.5 |
| 20260507224037 | 12 | 248 | 3.2 | 6.4 | 0.00 | 0.15 | 0.00 | 84 | 1013.7 |
| 20260507224027 | 12 | 175 | 3.2 | 6.4 | 0.00 | 0.15 | 0.00 | 84 | 1013.7 |
| 20260507222559 | 12 | 163 | 1.6 | 8.0 | 0.00 | 0.15 | 0.00 | 83 | 1013.6 |
| 20260507222057 | 12 | 278 | 3.2 | 8.0 | 0.00 | 0.15 | 0.00 | 83 | 1013.4 |
| 20260507221559 | 12 | 226 | 3.2 | 8.0 | 0.00 | 0.15 | 0.00 | 82 | 1013.5 |
| 20260507221057 | 12 | 348 | 1.6 | 8.0 | 0.00 | 0.18 | 0.00 | 83 | 1013.7 |
| 20260507220823 | 12 | 221 | 4.8 | 8.0 | 0.00 | 0.18 | 0.00 | 84 | 1013.2 |
| 20260507220316 | 12 | 310 | 3.2 | 8.0 | 0.00 | 0.18 | 0.00 | 83 | 1013.3 |
| 20260507215607 | 12 | 241 | 3.2 | 9.7 | 0.00 | 0.23 | 0.18 | 82 | 1013.5 |
| 20260507215558 | 12 | 206 | 3.2 | 8.0 | 0.00 | 0.18 | 0.18 | 83 | 1013.1 |
| 20260507215507 | 12 | 186 | 9.7 | 9.7 | 0.00 | 0.30 | 0.18 | 83 | 1013.1 |
| 20260507214823 | 13 | 185 | 4.8 | 9.7 | 0.00 | 0.28 | 0.18 | 81 | 1013.4 |
| 20260507213827 | 12 | 195 | 3.2 | 6.4 | 0.00 | 0.33 | 0.18 | 83 | 1012.8 |
| 20260507213259 | 12 | 241 | 1.6 | 14.5 | 0.00 | 0.38 | 0.18 | 84 | 1013.0 |
| 20260507213057 | 12 | 206 | 4.8 | 9.7 | 0.00 | 0.36 | 0.18 | 83 | 1013.0 |
| 20260507212608 | 12 | 225 | 1.6 | 14.5 | 0.00 | 0.41 | 0.18 | 84 | 1013.1 |
| 20260507211818 | 12 | 331 | 1.6 | 9.7 | 0.00 | 0.43 | 0.18 | 84 | 1013.0 |
| 20260507211056 | 12 | 315 | 4.8 | 8.0 | 0.00 | 0.43 | 0.18 | 84 | 1013.1 |
| 20260507210601 | 12 | 290 | 0.0 | 8.0 | 0.00 | 0.43 | 0.18 | 84 | 1013.2 |
| 20260507210317 | 12 | 304 | 3.2 | 8.0 | 0.00 | 0.43 | 0.18 | 84 | 1012.9 |
| 20260507205558 | 12 | 284 | 3.2 | 8.0 | 0.00 | 0.43 | 0.18 | 84 | 1013.0 |
| 20260507205056 | 12 | 272 | 1.6 | 8.0 | 0.00 | 0.43 | 0.18 | 84 | 1012.9 |
| 20260507204559 | 13 | 299 | 3.2 | 9.7 | 0.00 | 0.43 | 0.18 | 83 | 1013.0 |
| 20260507204315 | 13 | 321 | 6.4 | 9.7 | 0.00 | 0.43 | 0.18 | 82 | 1012.9 |
| 20260507203558 | 13 | 312 | 4.8 | 9.7 | 0.00 | 0.43 | 0.18 | 82 | 1013.1 |
| 20260507203057 | 13 | 313 | 4.8 | 9.7 | 0.00 | 0.46 | 0.18 | 81 | 1013.1 |
| 20260507202558 | 13 | 251 | 6.4 | 9.7 | 0.00 | 0.46 | 0.18 | 81 | 1012.9 |
| 20260507202057 | 13 | 318 | 4.8 | 8.0 | 0.00 | 0.46 | 0.18 | 81 | 1012.8 |
| 20260507201825 | 13 | 301 | 3.2 | 8.0 | 0.00 | 0.46 | 0.18 | 82 | 1012.8 |
| 20260507201056 | 13 | 259 | 3.2 | 8.0 | 0.00 | 0.46 | 0.18 | 82 | 1012.8 |
| 20260507201046 | 13 | 316 | 3.2 | 8.0 | 0.00 | 0.46 | 0.18 | 82 | 1012.7 |
| 20260507200057 | 13 | 292 | 3.2 | 6.4 | 0.00 | 0.46 | 0.18 | 82 | 1012.4 |
| 20260507195557 | 13 | 243 | 3.2 | 8.0 | 0.00 | 0.46 | 0.18 | 81 | 1012.4 |
| 20260507195057 | 13 | 314 | 3.2 | 8.0 | 0.00 | 0.46 | 0.18 | 80 | 1012.5 |
| 20260507194910 | 14 | 249 | 3.2 | 8.0 | 0.00 | 0.46 | 0.18 | 79 | 1012.2 |
| 20260507194812 | 14 | 264 | 3.2 | 9.7 | 0.00 | 0.46 | 0.18 | 78 | 1012.2 |
| 20260507193601 | 14 | 289 | 6.4 | 9.7 | 0.00 | 0.46 | 0.18 | 77 | 1012.0 |
| 20260507193056 | 14 | 23 | 0.0 | 8.0 | 0.00 | 0.46 | 0.18 | 78 | 1012.0 |
| 20260507192601 | 14 | 303 | 4.8 | 6.4 | 0.00 | 0.46 | 0.18 | 79 | 1011.7 |
| 20260507192056 | 14 | 295 | 3.2 | 11.3 | 0.00 | 0.46 | 0.18 | 77 | 1011.8 |
| 20260507191734 | 14 | 307 | 3.2 | 6.4 | 0.00 | 0.46 | 0.18 | 77 | 1011.7 |
| 20260507191600 | 15 | 306 | 3.2 | 11.3 | 0.00 | 0.46 | 0.18 | 76 | 1011.9 |
| 20260507191320 | 15 | 311 | 3.2 | 8.0 | 0.00 | 0.46 | 0.18 | 75 | 1011.7 |
| 20260507190926 | 14 | 304 | 6.4 | 6.4 | 0.00 | 0.46 | 0.18 | 77 | 1011.6 |
| 20260507185557 | 14 | 301 | 4.8 | 6.4 | 0.00 | 0.46 | 0.18 | 79 | 1011.6 |
| 20260507185545 | 14 | 297 | 3.2 | 6.4 | 0.00 | 0.46 | 0.18 | 79 | 1011.7 |
| 20260507185103 | 14 | 275 | 3.2 | 6.4 | 0.00 | 0.46 | 0.18 | 78 | 1011.7 |
| 20260507184548 | 15 | 316 | 4.8 | 6.4 | 0.00 | 0.46 | 0.18 | 78 | 1011.8 |
| 20260507184046 | 15 | 272 | 3.2 | 6.4 | 0.00 | 0.46 | 0.18 | 76 | 1011.6 |
| 20260507183057 | 15 | 280 | 3.2 | 6.4 | 0.00 | 0.46 | 0.18 | 75 | 1011.5 |
| 20260507183043 | 15 | 300 | 3.2 | 6.4 | 0.00 | 0.46 | 0.18 | 75 | 1011.4 |
| 20260507182056 | 15 | 302 | 4.8 | 6.4 | 0.00 | 0.46 | 0.18 | 75 | 1011.4 |
| 20260507181816 | 15 | 323 | 4.8 | 8.0 | 0.00 | 0.46 | 0.18 | 74 | 1011.0 |
| 20260507181056 | 15 | 330 | 4.8 | 8.0 | 0.00 | 0.46 | 0.18 | 71 | 1011.1 |
| 20260507180831 | 15 | 273 | 3.2 | 8.0 | 0.00 | 0.46 | 0.18 | 70 | 1011.1 |
| 20260507180056 | 16 | 306 | 4.8 | 6.4 | 0.00 | 0.46 | 0.18 | 70 | 1011.1 |
| 20260507175823 | 16 | 291 | 1.6 | 6.4 | 0.00 | 0.46 | 0.18 | 69 | 1011.1 |
| 20260507175314 | 16 | 281 | 3.2 | 9.7 | 0.00 | 0.48 | 0.18 | 68 | 1010.9 |
| 20260507174559 | 16 | 312 | 6.4 | 9.7 | 0.00 | 0.51 | 0.18 | 66 | 1011.1 |
| 20260507174057 | 16 | 354 | 6.4 | 11.3 | 0.00 | 0.56 | 0.18 | 65 | 1010.9 |
| 20260507174043 | 15 | 321 | 3.2 | 11.3 | 0.00 | 0.56 | 0.18 | 69 | 1011.0 |
| 20260507173056 | 15 | 298 | 4.8 | 11.3 | 0.00 | 0.56 | 0.18 | 70 | 1011.1 |
| 20260507173046 | 16 | 328 | 4.8 | 9.7 | 0.00 | 0.56 | 0.18 | 70 | 1010.7 |
| 20260507172056 | 16 | 342 | 3.2 | 9.7 | 0.00 | 0.56 | 0.18 | 68 | 1010.8 |
| 20260507172040 | 16 | 312 | 3.2 | 9.7 | 0.00 | 0.56 | 0.18 | 67 | 1010.7 |
| 20260507171056 | 16 | 285 | 6.4 | 9.7 | 0.00 | 0.56 | 0.18 | 68 | 1010.7 |
| 20260507170558 | 16 | 307 | 3.2 | 8.0 | 0.00 | 0.56 | 0.18 | 69 | 1010.8 |
| 20260507170055 | 16 | 299 | 3.2 | 9.7 | 0.00 | 0.56 | 0.18 | 69 | 1010.9 |
| 20260507170041 | 16 | 272 | 4.8 | 9.7 | 0.00 | 0.56 | 0.18 | 69 | 1010.6 |
| 20260507165059 | 16 | 310 | 6.4 | 8.0 | 0.00 | 0.56 | 0.18 | 70 | 1010.6 |
| 20260507164559 | 16 | 299 | 1.6 | 9.7 | 0.00 | 0.56 | 0.18 | 71 | 1010.8 |
| 20260507164315 | 16 | 0 | 3.2 | 9.7 | 0.00 | 0.56 | 0.18 | 70 | 1010.7 |
| 20260507163557 | 16 | 305 | 4.8 | 8.0 | 0.00 | 0.56 | 0.18 | 68 | 1010.5 |
| 20260507163055 | 17 | 267 | 4.8 | 8.0 | 0.00 | 0.56 | 0.18 | 66 | 1010.7 |
| 20260507162557 | 17 | 304 | 3.2 | 8.0 | 0.00 | 0.56 | 0.18 | 64 | 1010.7 |
| 20260507162059 | 17 | 215 | 3.2 | 8.0 | 0.00 | 0.56 | 0.18 | 61 | 1010.8 |
| 20260507161557 | 17 | 266 | 3.2 | 8.0 | 0.00 | 0.56 | 0.18 | 59 | 1010.5 |
| 20260507161056 | 18 | 269 | 0.0 | 4.8 | 0.00 | 0.56 | 0.18 | 61 | 1010.6 |
| 20260507160557 | 18 | 225 | 0.0 | 4.8 | 0.00 | 0.56 | 0.18 | 57 | 1010.6 |
| 20260507160056 | 18 | 183 | 1.6 | 4.8 | 0.00 | 0.56 | 0.18 | 54 | 1010.5 |
| 20260507155556 | 18 | 214 | 1.6 | 4.8 | 0.00 | 0.56 | 0.18 | 55 | 1010.4 |
| 20260507155320 | 20 | 213 | 3.2 | 4.8 | 0.00 | 0.56 | 0.18 | 49 | 1010.6 |
| 20260507154818 | 18 | 213 | 4.8 | 6.4 | 0.00 | 0.56 | 0.18 | 45 | 1010.6 |
| 20260507154558 | 19 | 253 | 1.6 | 4.8 | 0.00 | 0.56 | 0.18 | 46 | 1010.5 |
| 20260507153556 | 18 | 198 | 4.8 | 6.4 | 0.00 | 0.56 | 0.18 | 47 | 1010.6 |
| 20260507153059 | 18 | 199 | 6.4 | 6.4 | 0.00 | 0.56 | 0.18 | 51 | 1010.6 |
| 20260507152556 | 18 | 156 | 3.2 | 6.4 | 0.00 | 0.56 | 0.18 | 54 | 1010.4 |
| 20260507152055 | 18 | 181 | 3.2 | 8.0 | 0.00 | 0.56 | 0.18 | 52 | 1010.4 |
| 20260507152043 | 19 | 186 | 3.2 | 8.0 | 0.00 | 0.56 | 0.18 | 52 | 1010.5 |
| 20260507151327 | 19 | 186 | 3.2 | 9.7 | 0.00 | 0.56 | 0.18 | 47 | 1010.6 |
| 20260507150557 | 20 | 210 | 3.2 | 9.7 | 0.00 | 0.56 | 0.18 | 48 | 1010.6 |
| 20260507150059 | 20 | 146 | 3.2 | 6.4 | 0.00 | 0.56 | 0.18 | 47 | 1010.6 |
| 20260507145813 | 20 | 181 | 3.2 | 8.0 | 0.00 | 0.56 | 0.18 | 46 | 1010.4 |
| 20260507145056 | 20 | 177 | 3.2 | 8.0 | 0.00 | 0.56 | 0.18 | 50 | 1010.7 |
| 20260507144559 | 20 | 188 | 3.2 | 9.7 | 0.00 | 0.56 | 0.18 | 51 | 1010.7 |
| 20260507144056 | 19 | 159 | 4.8 | 9.7 | 0.00 | 0.56 | 0.18 | 53 | 1010.7 |
| 20260507143819 | 20 | 180 | 3.2 | 14.5 | 0.00 | 0.56 | 0.18 | 54 | 1010.9 |
| 20260507143314 | 20 | 189 | 3.2 | 14.5 | 0.00 | 0.56 | 0.18 | 51 | 1010.7 |
| 20260507142557 | 19 | 154 | 11.3 | 12.9 | 0.00 | 0.56 | 0.18 | 51 | 1010.7 |
| 20260507142055 | 19 | 159 | 6.4 | 11.3 | 0.00 | 0.56 | 0.18 | 52 | 1010.8 |
| 20260507141556 | 19 | 171 | 4.8 | 16.1 | 0.00 | 0.56 | 0.18 | 52 | 1010.8 |
| 20260507141056 | 19 | 142 | 6.4 | 16.1 | 0.00 | 0.56 | 0.18 | 52 | 1010.8 |
| 20260507140824 | 20 | 164 | 11.3 | 14.5 | 0.00 | 0.56 | 0.18 | 53 | 1011.1 |
| 20260507140314 | 20 | 187 | 3.2 | 9.7 | 0.00 | 0.56 | 0.18 | 54 | 1011.0 |
| 20260507135557 | 20 | 159 | 4.8 | 9.7 | 0.00 | 0.56 | 0.18 | 55 | 1010.9 |
| 20260507135325 | 20 | 208 | 0.0 | 9.7 | 0.00 | 0.56 | 0.18 | 52 | 1011.1 |
| 20260507134559 | 20 | 191 | 4.8 | 11.3 | 0.00 | 0.56 | 0.18 | 50 | 1011.1 |
| 20260507134058 | 20 | 167 | 4.8 | 11.3 | 0.00 | 0.56 | 0.18 | 54 | 1011.1 |
| 20260507133821 | 20 | 186 | 4.8 | 9.7 | 0.00 | 0.56 | 0.18 | 55 | 1011.2 |
| 20260507133322 | 19 | 145 | 1.6 | 8.0 | 0.00 | 0.56 | 0.18 | 57 | 1011.4 |
| 20260507132559 | 19 | 89 | 0.0 | 8.0 | 0.00 | 0.56 | 0.18 | 57 | 1011.4 |
| 20260507132054 | 20 | 6 | 3.2 | 8.0 | 0.00 | 0.56 | 0.18 | 56 | 1011.2 |
| 20260507131558 | 19 | 346 | 1.6 | 6.4 | 0.00 | 0.56 | 0.18 | 57 | 1011.6 |
| 20260507131058 | 18 | 322 | 3.2 | 6.4 | 0.00 | 0.56 | 0.18 | 61 | 1011.6 |
| 20260507130556 | 18 | 261 | 1.6 | 6.4 | 0.00 | 0.56 | 0.18 | 60 | 1011.6 |
| 20260507130055 | 18 | 286 | 3.2 | 6.4 | 0.00 | 0.56 | 0.18 | 58 | 1011.4 |
| 20260507130043 | 18 | 308 | 0.0 | 6.4 | 0.00 | 0.56 | 0.18 | 56 | 1011.5 |
| 20260507125059 | 17 | 323 | 0.0 | 6.4 | 0.00 | 0.56 | 0.18 | 64 | 1011.7 |
| 20260507124600 | 16 | 301 | 1.6 | 6.4 | 0.00 | 0.56 | 0.18 | 67 | 1011.4 |
| 20260507124318 | 16 | 182 | 3.2 | 6.4 | 0.00 | 0.56 | 0.18 | 67 | 1011.5 |
| 20260507123600 | 17 | 64 | 1.6 | 8.0 | 0.00 | 0.56 | 0.18 | 65 | 1011.5 |
| 20260507123324 | 17 | 287 | 0.0 | 8.0 | 0.00 | 0.56 | 0.18 | 61 | 1011.6 |
| 20260507122819 | 18 | 258 | 0.0 | 8.0 | 0.00 | 0.56 | 0.18 | 59 | 1011.7 |
| 20260507122320 | 18 | 176 | 1.6 | 11.3 | 0.00 | 0.56 | 0.18 | 57 | 1011.6 |
| 20260507122311 | 18 | 156 | 4.8 | 11.3 | 0.00 | 0.56 | 0.18 | 52 | 1011.6 |
| 20260507121502 | 19 | 156 | 8.0 | 12.9 | 0.00 | 0.56 | 0.18 | 52 | 1011.8 |
| 20260507121349 | 18 | 198 | 0.0 | 12.9 | 0.00 | 0.56 | 0.18 | 54 | 1011.8 |
| 20260507120644 | 18 | 150 | 4.8 | 12.9 | 0.00 | 0.56 | 0.18 | 52 | 1011.8 |
| 20260507115600 | 18 | 200 | 4.8 | 11.3 | 0.00 | 0.56 | 0.18 | 58 | 1011.7 |
| 20260507115552 | 18 | 188 | 3.2 | 11.3 | 0.00 | 0.56 | 0.18 | 59 | 1011.8 |
| 20260507114558 | 19 | 181 | 6.4 | 12.9 | 0.00 | 0.56 | 0.18 | 61 | 1011.7 |
| 20260507114320 | 18 | 146 | 9.7 | 12.9 | 0.00 | 0.56 | 0.18 | 59 | 1011.7 |
| 20260507113557 | 18 | 176 | 9.7 | 11.3 | 0.00 | 0.56 | 0.18 | 59 | 1011.9 |
| 20260507113055 | 18 | 189 | 6.4 | 12.9 | 0.00 | 0.56 | 0.18 | 60 | 1011.9 |
| 20260507112557 | 18 | 200 | 6.4 | 12.9 | 0.00 | 0.56 | 0.18 | 58 | 1011.9 |
| 20260507112055 | 18 | 146 | 3.2 | 11.3 | 0.00 | 0.56 | 0.18 | 56 | 1012.0 |
| 20260507111557 | 18 | 173 | 4.8 | 12.9 | 0.00 | 0.56 | 0.18 | 56 | 1012.0 |
| 20260507111055 | 18 | 153 | 11.3 | 12.9 | 0.00 | 0.56 | 0.18 | 60 | 1012.0 |
| 20260507110600 | 18 | 155 | 6.4 | 12.9 | 0.00 | 0.56 | 0.18 | 62 | 1012.0 |
| 20260507110055 | 18 | 139 | 3.2 | 14.5 | 0.00 | 0.56 | 0.18 | 62 | 1012.0 |
| 20260507105826 | 17 | 112 | 1.6 | 14.5 | 0.00 | 0.56 | 0.18 | 62 | 1012.5 |
| 20260507105056 | 18 | 168 | 6.4 | 12.9 | 0.00 | 0.56 | 0.18 | 61 | 1012.2 |
| 20260507104821 | 18 | 174 | 4.8 | 14.5 | 0.00 | 0.56 | 0.18 | 62 | 1012.3 |
| 20260507104056 | 18 | 159 | 4.8 | 14.5 | 0.00 | 0.56 | 0.18 | 63 | 1012.4 |
| 20260507103826 | 18 | 138 | 11.3 | 16.1 | 0.00 | 0.56 | 0.18 | 61 | 1012.4 |
| 20260507103541 | 17 | 160 | 8.0 | 16.1 | 0.00 | 0.56 | 0.18 | 63 | 1012.3 |
| 20260507102805 | 17 | 168 | 6.4 | 9.7 | 0.00 | 0.56 | 0.18 | 64 | 1012.3 |
| 20260507102558 | 17 | 222 | 4.8 | 11.3 | 0.00 | 0.56 | 0.18 | 65 | 1012.6 |
| 20260507101823 | 17 | 87 | 4.8 | 12.9 | 0.00 | 0.56 | 0.18 | 64 | 1012.7 |
| 20260507101539 | 17 | 197 | 6.4 | 12.9 | 0.00 | 0.56 | 0.18 | 64 | 1012.5 |
| 20260507100556 | 17 | 180 | 6.4 | 12.9 | 0.00 | 0.56 | 0.18 | 66 | 1012.6 |
| 20260507100055 | 17 | 202 | 6.4 | 14.5 | 0.00 | 0.56 | 0.18 | 69 | 1012.6 |
| 20260507095824 | 17 | 189 | 6.4 | 14.5 | 0.00 | 0.56 | 0.18 | 69 | 1012.5 |
| 20260507095313 | 17 | 137 | 3.2 | 12.9 | 0.00 | 0.56 | 0.18 | 69 | 1013.0 |
| 20260507094828 | 17 | 219 | 3.2 | 12.9 | 0.00 | 0.56 | 0.18 | 69 | 1012.7 |
| 20260507094055 | 16 | 148 | 9.7 | 12.9 | 0.00 | 0.56 | 0.18 | 66 | 1012.4 |
| 20260507093557 | 16 | 163 | 3.2 | 12.9 | 0.00 | 0.56 | 0.18 | 68 | 1012.4 |
| 20260507093322 | 16 | 161 | 8.0 | 14.5 | 0.00 | 0.56 | 0.18 | 70 | 1012.6 |
| 20260507093048 | 16 | 159 | 12.9 | 14.5 | 0.00 | 0.56 | 0.18 | 72 | 1012.5 |
| 20260507092058 | 17 | 96 | 1.6 | 9.7 | 0.00 | 0.56 | 0.18 | 70 | 1012.6 |
| 20260507091814 | 17 | 61 | 3.2 | 9.7 | 0.00 | 0.56 | 0.18 | 71 | 1012.5 |
| 20260507091056 | 15 | 89 | 3.2 | 8.0 | 0.00 | 0.56 | 0.18 | 73 | 1012.6 |
| 20260507090602 | 16 | 50 | 6.4 | 16.1 | 0.00 | 0.56 | 0.18 | 70 | 1012.5 |
| 20260507090521 | 16 | 59 | 8.0 | 9.7 | 0.00 | 0.56 | 0.18 | 68 | 1012.6 |
| 20260507090152 | 16 | 188 | 6.4 | 16.1 | 0.00 | 0.56 | 0.18 | 74 | 1012.5 |
| 20260507085055 | 16 | 109 | 3.2 | 11.3 | 0.00 | 0.56 | 0.18 | 69 | 1012.3 |
| 20260507084825 | 15 | 80 | 6.4 | 11.3 | 0.00 | 0.56 | 0.18 | 67 | 1012.3 |
| 20260507084055 | 16 | 69 | 6.4 | 12.9 | 0.00 | 0.56 | 0.18 | 69 | 1012.3 |
| 20260507083820 | 16 | 82 | 6.4 | 14.5 | 0.00 | 0.56 | 0.18 | 69 | 1012.3 |
| 20260507083313 | 16 | 106 | 6.4 | 16.1 | 0.00 | 0.56 | 0.18 | 70 | 1012.2 |
| 20260507082557 | 16 | 65 | 9.7 | 16.1 | 0.00 | 0.56 | 0.18 | 71 | 1012.2 |
| 20260507082055 | 15 | 76 | 11.3 | 16.1 | 0.00 | 0.56 | 0.18 | 71 | 1012.2 |
| 20260507081557 | 16 | 258 | 3.2 | 12.9 | 0.00 | 0.56 | 0.18 | 72 | 1012.2 |
| 20260507081315 | 17 | 158 | 3.2 | 11.3 | 0.00 | 0.56 | 0.18 | 67 | 1012.1 |
| 20260507080557 | 16 | 286 | 4.8 | 11.3 | 0.00 | 0.56 | 0.18 | 71 | 1011.9 |
| 20260507080315 | 17 | 119 | 0.0 | 8.0 | 0.00 | 0.56 | 0.18 | 69 | 1011.9 |
| 20260507075816 | 16 | 218 | 3.2 | 11.3 | 0.00 | 0.56 | 0.18 | 73 | 1012.0 |
| 20260507075100 | 16 | 242 | 4.8 | 12.9 | 0.00 | 0.56 | 0.18 | 75 | 1012.0 |
| 20260507074558 | 15 | 80 | 4.8 | 12.9 | 0.00 | 0.56 | 0.18 | 74 | 1011.9 |
| 20260507074308 | 15 | 92 | 8.0 | 12.9 | 0.00 | 0.56 | 0.18 | 73 | 1012.0 |
| 20260507074056 | 15 | 87 | 6.4 | 12.9 | 0.00 | 0.56 | 0.18 | 74 | 1012.0 |
| 20260507073315 | 16 | 77 | 3.2 | 6.4 | 0.00 | 0.56 | 0.18 | 74 | 1012.1 |
| 20260507072559 | 15 | 241 | 3.2 | 9.7 | 0.00 | 0.56 | 0.18 | 77 | 1012.2 |
| 20260507072322 | 15 | 101 | 3.2 | 9.7 | 0.00 | 0.56 | 0.18 | 76 | 1012.1 |
| 20260507071605 | 15 | 177 | 4.8 | 12.9 | 0.00 | 0.56 | 0.18 | 78 | 1011.9 |
| 20260507071058 | 15 | 61 | 1.6 | 12.9 | 0.00 | 0.56 | 0.18 | 78 | 1011.9 |
| 20260507070557 | 14 | 196 | 3.2 | 9.7 | 0.00 | 0.56 | 0.18 | 81 | 1012.1 |
| 20260507070056 | 13 | 223 | 4.8 | 9.7 | 0.00 | 0.56 | 0.18 | 84 | 1012.2 |
| 20260507065610 | 13 | 169 | 4.8 | 9.7 | 0.00 | 0.56 | 0.18 | 84 | 1012.0 |
| 20260507065058 | 13 | 180 | 6.4 | 8.0 | 0.00 | 0.56 | 0.18 | 85 | 1011.7 |
| 20260507064821 | 13 | 158 | 4.8 | 8.0 | 0.00 | 0.56 | 0.18 | 86 | 1011.6 |
| 20260507064055 | 13 | 209 | 3.2 | 8.0 | 0.00 | 0.56 | 0.18 | 87 | 1011.7 |
| 20260507063909 | 12 | 176 | 6.4 | 8.0 | 0.00 | 0.56 | 0.18 | 88 | 1011.6 |
| 20260507063804 | 12 | 210 | 3.2 | 8.0 | 0.00 | 0.56 | 0.18 | 89 | 1011.7 |
| 20260507062556 | 11 | 265 | 3.2 | 8.0 | 0.00 | 0.56 | 0.18 | 90 | 1011.8 |
| 20260507062546 | 11 | 305 | 4.8 | 8.0 | 0.00 | 0.56 | 0.18 | 90 | 1011.5 |
| 20260507061557 | 11 | 227 | 3.2 | 6.4 | 0.00 | 0.56 | 0.18 | 90 | 1011.6 |
| 20260507061325 | 11 | 240 | 3.2 | 8.0 | 0.00 | 0.56 | 0.18 | 90 | 1011.6 |
| 20260507060823 | 12 | 226 | 3.2 | 8.0 | 0.00 | 0.56 | 0.18 | 90 | 1011.2 |
| 20260507060055 | 11 | 197 | 4.8 | 9.7 | 0.00 | 0.56 | 0.18 | 90 | 1011.6 |
| 20260507055821 | 12 | 310 | 4.8 | 9.7 | 0.00 | 0.56 | 0.18 | 89 | 1011.1 |
| 20260507055055 | 12 | 281 | 3.2 | 9.7 | 0.00 | 0.56 | 0.18 | 89 | 1011.5 |
| 20260507054558 | 12 | 195 | 6.4 | 9.7 | 0.00 | 0.56 | 0.18 | 90 | 1011.6 |
| 20260507054313 | 11 | 184 | 4.8 | 8.0 | 0.00 | 0.56 | 0.18 | 93 | 1011.5 |
| 20260507053559 | 11 | 237 | 3.2 | 8.0 | 0.00 | 0.56 | 0.18 | 94 | 1011.4 |
| 20260507053327 | 11 | 241 | 3.2 | 6.4 | 0.00 | 0.56 | 0.18 | 94 | 1011.2 |
| 20260507052557 | 11 | 208 | 4.8 | 8.0 | 0.00 | 0.56 | 0.18 | 92 | 1011.1 |
| 20260507052055 | 12 | 143 | 3.2 | 8.0 | 0.00 | 0.56 | 0.18 | 91 | 1011.5 |
| 20260507052046 | 11 | 89 | 1.6 | 8.0 | 0.00 | 0.56 | 0.18 | 92 | 1011.1 |
| 20260507051055 | 11 | 209 | 1.6 | 8.0 | 0.00 | 0.56 | 0.18 | 94 | 1011.1 |
| 20260507050806 | 10 | 287 | 1.6 | 6.4 | 0.00 | 0.56 | 0.18 | 96 | 1010.8 |
| 20260507050655 | 11 | 207 | 3.2 | 8.0 | 0.00 | 0.56 | 0.18 | 94 | 1010.8 |
| 20260507045557 | 10 | 236 | 3.2 | 8.0 | 0.00 | 0.56 | 0.18 | 96 | 1010.8 |
| 20260507045531 | 10 | 320 | 3.2 | 8.0 | 0.00 | 0.56 | 0.18 | 96 | 1011.0 |
| 20260507045046 | 10 | 46 | 1.6 | 8.0 | 0.00 | 0.56 | 0.18 | 96 | 1010.9 |
| 20260507044319 | 10 | 224 | 1.6 | 6.4 | 0.00 | 0.56 | 0.18 | 97 | 1010.6 |
| 20260507043556 | 10 | 242 | 3.2 | 9.7 | 0.00 | 0.56 | 0.18 | 97 | 1010.6 |
| 20260507043055 | 10 | 224 | 4.8 | 9.7 | 0.00 | 0.56 | 0.18 | 97 | 1010.7 |
| 20260507042557 | 10 | 292 | 0.0 | 8.0 | 0.00 | 0.56 | 0.18 | 97 | 1010.4 |
| 20260507042055 | 10 | 207 | 1.6 | 6.4 | 0.00 | 0.56 | 0.18 | 97 | 1010.5 |
| 20260507041821 | 10 | 292 | 3.2 | 6.4 | 0.00 | 0.56 | 0.18 | 97 | 1010.7 |
| 20260507041325 | 10 | 190 | 3.2 | 6.4 | 0.00 | 0.56 | 0.18 | 97 | 1010.6 |
| 20260507040821 | 10 | 234 | 3.2 | 8.0 | 0.00 | 0.56 | 0.18 | 96 | 1010.6 |
| 20260507040055 | 10 | 335 | 3.2 | 8.0 | 0.00 | 0.56 | 0.18 | 96 | 1010.5 |
| 20260507035557 | 10 | 223 | 3.2 | 6.4 | 0.00 | 0.56 | 0.18 | 96 | 1010.5 |
| 20260507035333 | 10 | 328 | 3.2 | 6.4 | 0.00 | 0.56 | 0.18 | 97 | 1010.4 |
| 20260507034558 | 10 | 269 | 3.2 | 6.4 | 0.00 | 0.56 | 0.18 | 97 | 1010.8 |
| 20260507034058 | 10 | 287 | 3.2 | 9.7 | 0.00 | 0.56 | 0.18 | 97 | 1010.3 |
| 20260507033821 | 10 | 332 | 3.2 | 9.7 | 0.00 | 0.56 | 0.18 | 97 | 1010.6 |
| 20260507033056 | 10 | 206 | 3.2 | 8.0 | 0.00 | 0.56 | 0.18 | 96 | 1010.6 |
| 20260507032818 | 10 | 277 | 1.6 | 8.0 | 0.00 | 0.56 | 0.18 | 96 | 1010.4 |
| 20260507032055 | 10 | 137 | 3.2 | 9.7 | 0.00 | 0.56 | 0.18 | 96 | 1010.5 |
| 20260507031820 | 10 | 223 | 3.2 | 12.9 | 0.00 | 0.56 | 0.18 | 96 | 1010.6 |
| 20260507031056 | 10 | 81 | 3.2 | 12.9 | 0.00 | 0.56 | 0.18 | 96 | 1010.5 |
| 20260507031023 | 10 | 234 | 3.2 | 8.0 | 0.03 | 0.56 | 0.18 | 97 | 1010.4 |
| 20260507030822 | 10 | 220 | 3.2 | 9.7 | 0.00 | 0.56 | 0.18 | 97 | 1010.4 |
| 20260507030037 | 10 | 264 | 3.2 | 8.0 | 0.05 | 0.56 | 0.18 | 97 | 1010.4 |
| 20260507025059 | 10 | 192 | 3.2 | 9.7 | 0.05 | 0.56 | 0.18 | 97 | 1010.5 |
| 20260507024559 | 10 | 274 | 3.2 | 9.7 | 0.05 | 0.56 | 0.18 | 97 | 1010.4 |
| 20260507024055 | 10 | 196 | 4.8 | 8.0 | 0.05 | 0.56 | 0.18 | 97 | 1010.4 |
| 20260507023816 | 10 | 282 | 1.6 | 8.0 | 0.05 | 0.56 | 0.18 | 98 | 1010.3 |
| 20260507023055 | 10 | 197 | 4.8 | 8.0 | 0.05 | 0.56 | 0.18 | 98 | 1010.2 |
| 20260507022819 | 10 | 206 | 3.2 | 6.4 | 0.05 | 0.56 | 0.18 | 98 | 1010.3 |
| 20260507022316 | 10 | 210 | 1.6 | 8.0 | 0.05 | 0.56 | 0.18 | 97 | 1010.4 |
| 20260507022046 | 10 | 255 | 3.2 | 8.0 | 0.05 | 0.56 | 0.18 | 97 | 1010.2 |
| 20260507021804 | 10 | 210 | 1.6 | 8.0 | 0.05 | 0.56 | 0.18 | 97 | 1010.3 |
| 20260507021301 | 11 | 284 | 4.8 | 8.0 | 0.05 | 0.56 | 0.18 | 97 | 1010.2 |
| 20260507020320 | 11 | 214 | 3.2 | 6.4 | 0.03 | 0.53 | 0.15 | 96 | 1010.0 |
| 20260507015559 | 11 | 248 | 3.2 | 6.4 | 0.00 | 0.51 | 0.15 | 96 | 1010.5 |
| 20260507015314 | 11 | 262 | 3.2 | 8.0 | 0.00 | 0.51 | 0.15 | 96 | 1010.5 |
| 20260507014602 | 11 | 200 | 4.8 | 8.0 | 0.00 | 0.51 | 0.15 | 96 | 1010.4 |
| 20260507014056 | 11 | 244 | 6.4 | 8.0 | 0.00 | 0.51 | 0.15 | 96 | 1010.5 |
| 20260507013821 | 11 | 298 | 3.2 | 8.0 | 0.00 | 0.51 | 0.15 | 97 | 1010.3 |
| 20260507013315 | 11 | 357 | 3.2 | 8.0 | 0.00 | 0.51 | 0.15 | 97 | 1010.2 |
| 20260507012556 | 10 | 221 | 3.2 | 6.4 | 0.00 | 0.51 | 0.15 | 98 | 1010.3 |
| 20260507012102 | 10 | 227 | 4.8 | 6.4 | 0.00 | 0.51 | 0.15 | 98 | 1010.1 |
| 20260507011556 | 10 | 208 | 3.2 | 6.4 | 0.00 | 0.51 | 0.15 | 98 | 1010.3 |
| 20260507011543 | 11 | 200 | 3.2 | 6.4 | 0.00 | 0.51 | 0.15 | 98 | 1010.5 |
| 20260507010815 | 10 | 215 | 4.8 | 8.0 | 0.00 | 0.51 | 0.15 | 98 | 1010.2 |
| 20260507010054 | 11 | 190 | 3.2 | 8.0 | 0.00 | 0.51 | 0.15 | 98 | 1010.0 |
| 20260507005557 | 11 | 213 | 6.4 | 8.0 | 0.00 | 0.51 | 0.15 | 97 | 1010.2 |
| 20260507005054 | 11 | 212 | 1.6 | 8.0 | 0.00 | 0.51 | 0.15 | 97 | 1010.1 |
| 20260507004557 | 11 | 188 | 3.2 | 8.0 | 0.00 | 0.51 | 0.15 | 98 | 1010.4 |
| 20260507004314 | 11 | 187 | 3.2 | 8.0 | 0.00 | 0.51 | 0.15 | 98 | 1010.0 |
| 20260507003813 | 11 | 254 | 3.2 | 8.0 | 0.00 | 0.51 | 0.15 | 98 | 1010.1 |
| 20260507003313 | 11 | 190 | 3.2 | 6.4 | 0.03 | 0.51 | 0.15 | 98 | 1010.0 |
| 20260507002555 | 11 | 267 | 3.2 | 6.4 | 0.03 | 0.51 | 0.15 | 99 | 1010.2 |
| 20260507002315 | 11 | 194 | 6.4 | 6.4 | 0.05 | 0.51 | 0.15 | 99 | 1010.4 |
| 20260507002048 | 11 | 231 | 0.0 | 6.4 | 0.05 | 0.51 | 0.15 | 99 | 1010.2 |
| 20260507001057 | 11 | 233 | 1.6 | 4.8 | 0.05 | 0.51 | 0.15 | 98 | 1010.3 |
| 20260507000555 | 11 | 204 | 3.2 | 6.4 | 0.05 | 0.51 | 0.15 | 98 | 1010.2 |
| 20260507000054 | 11 | 237 | 1.6 | 6.4 | 0.05 | 0.51 | 0.15 | 98 | 1010.4 |
| 20260506235556 | 11 | 265 | 1.6 | 8.0 | 0.05 | 0.51 | 0.15 | 98 | 1010.2 |